Tracking 28518 objects as of 1-Mar-2024
HD Live streaming from Space Station
objects crossing your sky now

MDASAT-1A

Track MDASAT-1A now!
10-day predictions


NORAD ID: 50995
Int'l Code: 2022-002M
Perigee: 484.3 km
Apogee: 495.0 km
Inclination: 97.4 °
Period: 94.3 minutes
Semi major axis: 6860 km
RCS: Unknown
Launch date: January 13, 2022
Source: South Africa (SAFR)
Launch site: AIR FORCE EASTERN TEST RANGE (AFETR)
Your satellite tracking list
Your tracking list is empty




NASA's NSSDC Master Catalog

Two Line Element Set (TLE):
1 50995U 22002M   24060.70570553  .00015552  00000-0  57536-3 0  9995
2 50995  97.3988 128.3047 0007789  60.1829 300.0184 15.27747938117879
Source of the keplerian elements: AFSPC